SILO ALERT LOG
| Silo ID | Alert Type | Alert Message | Silo Type | Points | Depth (mm) | Strength | Temperature (°C) | Humidity (%) | Height (mm) | Volume (㎥) | Weight (t) | Flag | Time |
|---|---|---|---|---|---|---|---|---|---|---|---|---|---|
| WJWJR05 | Humidity | 습도센서 측정값이 80% 초과 | 평 | 80 | 5558 | 2355 | 22.8 | 80.5 | 2171 | 245.645 | 155.297 | 0 | 2026-06-05 05:25:53.000 |
| WJWJR01 | Humidity | 습도센서 측정값이 80% 초과 | 평 | 48 | 6774 | 1850 | 21.7 | 83.9 | 865 | 97.935 | 61.914 | 0 | 2026-06-05 05:25:49.000 |
| WJWJR05 | Humidity | 습도센서 측정값이 80% 초과 | 평 | 78 | 5780 | 2332 | 23 | 80.3 | 1949 | 220.453 | 139.37 | 0 | 2026-06-05 04:25:55.000 |
| WJWJR01 | Humidity | 습도센서 측정값이 80% 초과 | 평 | 49 | 6789 | 1866 | 21.9 | 83.6 | 850 | 96.161 | 60.793 | 0 | 2026-06-05 04:25:50.000 |
| WJWJR05 | Humidity | 습도센서 측정값이 80% 초과 | 평 | 78 | 5651 | 2359 | 23.2 | 80.1 | 2078 | 235.071 | 148.612 | 0 | 2026-06-05 03:25:55.000 |
| WJWJR01 | Humidity | 습도센서 측정값이 80% 초과 | 평 | 49 | 6836 | 1852 | 22.2 | 83.5 | 803 | 90.862 | 57.443 | 0 | 2026-06-05 03:25:55.000 |
| WJWJR01 | Humidity | 습도센서 측정값이 80% 초과 | 평 | 49 | 6768 | 1853 | 22.5 | 83.3 | 871 | 98.548 | 62.302 | 0 | 2026-06-05 02:25:52.000 |
| WJWJR01 | Humidity | 습도센서 측정값이 80% 초과 | 평 | 49 | 6778 | 1825 | 22.6 | 83 | 861 | 97.428 | 61.594 | 0 | 2026-06-05 01:25:50.000 |
| WJWJR01 | Humidity | 습도센서 측정값이 80% 초과 | 평 | 49 | 6826 | 1804 | 23 | 82.7 | 813 | 92.008 | 58.167 | 0 | 2026-06-05 00:25:49.000 |
| WJWJR01 | Humidity | 습도센서 측정값이 80% 초과 | 평 | 49 | 6783 | 1829 | 23.3 | 82.3 | 856 | 96.828 | 61.215 | 0 | 2026-06-04 23:25:49.000 |
| WJWJR01 | Humidity | 습도센서 측정값이 80% 초과 | 평 | 49 | 6844 | 1928 | 23.8 | 81.4 | 795 | 89.974 | 56.881 | 0 | 2026-06-04 22:25:50.000 |
| WJWJR01 | Humidity | 습도센서 측정값이 80% 초과 | 평 | 47 | 6812 | 1817 | 24.3 | 80.2 | 827 | 93.613 | 59.182 | 0 | 2026-06-04 21:25:49.000 |
| WJWJR05 | Humidity | 습도센서 측정값이 80% 초과 | 평 | 79 | 5734 | 2329 | 24.8 | 80.2 | 1995 | 225.73 | 142.706 | 0 | 2026-06-04 10:25:54.000 |
| WJWJR01 | Humidity | 습도센서 측정값이 80% 초과 | 평 | 47 | 6861 | 1871 | 23.3 | 80.8 | 778 | 88.092 | 55.692 | 0 | 2026-06-04 09:25:52.000 |
| WJWJR01 | Humidity | 습도센서 측정값이 80% 초과 | 평 | 48 | 6785 | 1890 | 22.4 | 82.5 | 854 | 96.643 | 61.098 | 0 | 2026-06-04 08:25:55.000 |
| WJWJR05 | Humidity | 습도센서 측정값이 80% 초과 | 평 | 81 | 5697 | 2353 | 22.9 | 80.2 | 2032 | 229.911 | 145.35 | 0 | 2026-06-04 07:26:01.000 |
| WJWJR01 | Humidity | 습도센서 측정값이 80% 초과 | 평 | 49 | 6815 | 1844 | 22 | 83.4 | 824 | 93.205 | 58.924 | 0 | 2026-06-04 07:25:48.000 |
| WJWJR05 | Humidity | 습도센서 측정값이 80% 초과 | 평 | 80 | 5731 | 2380 | 23 | 80.1 | 1998 | 225.988 | 142.869 | 0 | 2026-06-04 06:26:02.000 |
| WJWJR01 | Humidity | 습도센서 측정값이 80% 초과 | 평 | 50 | 6780 | 1863 | 22 | 83.7 | 859 | 97.197 | 61.448 | 0 | 2026-06-04 06:25:51.000 |
| WJWJR01 | Humidity | 습도센서 측정값이 80% 초과 | 평 | 50 | 6832 | 1829 | 22.2 | 83.4 | 807 | 91.34 | 57.745 | 0 | 2026-06-04 05:25:51.000 |
[첫 페이지] [51] [52] [53] [54] 55 [56] [57] [58] [59] [마지막 페이지]